Weather History for Paris Orly, France

Change the Weather History Date:

Monday, September 30, 2013

  Actual Average Record
Temperature  
Mean Temperature 61 °F -  
Max Temperature 65 °F 60 °F 84 °F (2011)
Min Temperature 57 °F 46 °F 37 °F (2012)
Degree Days  
Heating Degree Days 4    
Growing Degree Days 11 (Base 50)    
Moisture  
Dew Point 58 °F    
Average Humidity 90    
Maximum Humidity 94    
Minimum Humidity 78    
Precipitation  
Precipitation 0.00 in - - ()
Sea Level Pressure  
Sea Level Pressure 29.70 in    
Wind  
Wind Speed 4 mph ()    
Max Wind Speed 7 mph    
Max Gust Speed -    
Visibility 5.7 miles    
Events      
Averages and records for this station are not official NWS values.
T = Trace of Precipitation, MM = Missing Value Source: Averaged Metar Reports

Daily Weather History Graph

Daily Weather History Graph

Search for Another Location

Airport:

Trip Planner

Search our weather history database for the weather conditions in past years. The results will help you decide how hot, cold, wet, or windy it might be!

Date:

Astronomy

Sep. 30, 2013 Rise Set
Actual Time 7:48 AM CEST 7:31 PM CEST
Civil Twilight 7:17 AM CEST 8:02 PM CEST
Nautical Twilight 6:40 AM CEST 8:39 PM CEST
Astronomical Twilight 6:03 AM CEST 9:16 PM CEST
Moon 2:51 AM CEST (9/30) 5:10 PM CEST (9/30)
Length of Visible Light 12h 45m
Length of Day
11h 42m
Waning Crescent, 21% of the Moon is Illuminated
Sep 30
Waning Crescent
Oct 5
New
Oct 12
First Quarter
Oct 19
Full
Oct 27
Last Quarter

Hourly Weather History & Observations

Time (CEST) Temp. Dew Point Humidity Pressure Visibility Wind Dir Wind Speed Gust Speed Precip Events Conditions
12:00 AM 62.6 °F 60.8 °F 94% 29.68 in 6.2 mi SE 5.8 mph - N/A   Mostly Cloudy
12:30 AM 62.6 °F 60.8 °F 94% 29.68 in 6.2 mi SE 4.6 mph - N/A   Mostly Cloudy
1:00 AM 62.6 °F 60.8 °F 94% 29.68 in 6.2 mi ESE 3.5 mph - N/A   Mostly Cloudy
1:30 AM 62.6 °F 60.8 °F 94% 29.68 in 6.2 mi ESE 3.5 mph - N/A   Mostly Cloudy
2:00 AM 62 °F 60 °F 92% 29.69 in 7 mi ESE 4.6 mph - -   Overcast
2:00 AM 62.6 °F 60.8 °F 94% 29.68 in 6.2 mi ESE 4.6 mph - N/A   Mostly Cloudy
2:30 AM 60.8 °F 59.0 °F 94% 29.68 in 6.2 mi ESE 6.9 mph - N/A   Mostly Cloudy
3:00 AM 59.0 °F 57.2 °F 94% 29.68 in 6.2 mi East 6.9 mph - N/A   Mostly Cloudy
3:30 AM 59.0 °F 57.2 °F 94% 29.68 in 6.2 mi East 5.8 mph - N/A   Mostly Cloudy
4:00 AM 59.0 °F 57.2 °F 94% 29.68 in 6.2 mi East 6.9 mph - N/A   Mostly Cloudy
4:30 AM 59.0 °F 57.2 °F 94% 29.68 in 6.2 mi East 5.8 mph - N/A   Mostly Cloudy
5:00 AM 59.0 °F 57.2 °F 94% 29.68 in 6.2 mi East 5.8 mph - N/A   Mostly Cloudy
5:30 AM 59.0 °F 57.2 °F 94% 29.65 in 6.2 mi ESE 5.8 mph - N/A   Mostly Cloudy
6:00 AM 59.0 °F 57.2 °F 94% 29.65 in 6.2 mi Variable 3.5 mph - N/A   Mostly Cloudy
6:30 AM 57.2 °F 55.4 °F 94% 29.65 in 6.2 mi East 6.9 mph - N/A   Mostly Cloudy
7:00 AM 57.2 °F 55.4 °F 94% 29.65 in 6.2 mi East 4.6 mph - N/A   Mostly Cloudy
7:30 AM 57.2 °F 55.4 °F 94% 29.65 in 6.2 mi ESE 3.5 mph - N/A   Mostly Cloudy
8:00 AM 57 °F 56 °F 93% 29.67 in 7 mi ESE 3.5 mph - -   Mostly Cloudy
8:00 AM 57.2 °F 55.4 °F 94% 29.65 in 6.2 mi ESE 3.5 mph - N/A   Mostly Cloudy
8:30 AM 57.2 °F 55.4 °F 94% 29.65 in 6.2 mi ESE 3.5 mph - N/A   Mostly Cloudy
9:00 AM 57.2 °F 55.4 °F 94% 29.68 in 6.2 mi Variable 3.5 mph - N/A   Mostly Cloudy
9:30 AM 59.0 °F 57.2 °F 94% 29.68 in 3.7 mi East 3.5 mph - N/A   Mostly Cloudy
10:00 AM 59.0 °F 57.2 °F 94% 29.68 in 3.7 mi ESE 4.6 mph - N/A   Mostly Cloudy
10:30 AM 59.0 °F 57.2 °F 94% 29.68 in 3.7 mi East 4.6 mph - N/A   Mostly Cloudy
11:00 AM 59.0 °F 57.2 °F 94% 29.71 in 3.7 mi ESE 3.5 mph - N/A   Mostly Cloudy
11:30 AM 59.0 °F 57.2 °F 94% 29.71 in 2.8 mi East 3.5 mph - N/A   Mostly Cloudy
12:00 PM 59.0 °F 57.2 °F 94% 29.71 in 1.9 mi East 5.8 mph - N/A   Mostly Cloudy
12:30 PM 60.8 °F 57.2 °F 88% 29.71 in 2.8 mi East 5.8 mph - N/A   Mostly Cloudy
1:00 PM 60.8 °F 59.0 °F 94% 29.71 in 3.7 mi ESE 5.8 mph - N/A   Mostly Cloudy
1:30 PM 60.8 °F 59.0 °F 94% 29.71 in 4.3 mi Variable 3.5 mph - N/A   Mostly Cloudy
2:00 PM 63 °F 58 °F 80% 29.71 in 5 mi ESE 2.3 mph - -   Overcast
2:00 PM 62.6 °F 59.0 °F 88% 29.71 in 5.0 mi Variable 2.3 mph - N/A   Mostly Cloudy
2:30 PM 62.6 °F 59.0 °F 88% 29.71 in 5.6 mi Variable 2.3 mph - N/A   Mostly Cloudy
3:00 PM 64.4 °F 59.0 °F 83% 29.68 in 6.2 mi Variable 2.3 mph - N/A   Mostly Cloudy
3:30 PM 64.4 °F 59.0 °F 83% 29.71 in 6.2 mi Variable 3.5 mph - N/A   Mostly Cloudy
4:00 PM 64.4 °F 59.0 °F 83% 29.71 in 6.2 mi Variable 2.3 mph - N/A   Mostly Cloudy
4:30 PM 66.2 °F 59.0 °F 78% 29.71 in 6.2 mi East 3.5 mph - N/A   Mostly Cloudy
5:00 PM 66.2 °F 59.0 °F 78% 29.71 in 6.2 mi Variable 3.5 mph - N/A   Mostly Cloudy
5:30 PM 64.4 °F 59.0 °F 83% 29.71 in 6.2 mi ESE 5.8 mph - N/A   Mostly Cloudy
6:00 PM 64.4 °F 59.0 °F 83% 29.71 in 6.2 mi East 5.8 mph - N/A   Mostly Cloudy
6:30 PM 64.4 °F 59.0 °F 83% 29.71 in 6.2 mi ESE 4.6 mph - N/A   Mostly Cloudy
7:00 PM 64.4 °F 59.0 °F 83% 29.71 in 6.2 mi ESE 3.5 mph - N/A   Mostly Cloudy
7:30 PM 64.4 °F 59.0 °F 83% 29.71 in 6.2 mi ESE 4.6 mph - N/A   Mostly Cloudy
8:00 PM 63 °F 59 °F 81% 29.73 in 7 mi East 3.5 mph - -   Mostly Cloudy
8:00 PM 62.6 °F 59.0 °F 88% 29.71 in 6.2 mi East 3.5 mph - N/A   Mostly Cloudy
8:30 PM 62.6 °F 59.0 °F 88% 29.74 in 6.2 mi ESE 3.5 mph - N/A   Mostly Cloudy
9:00 PM 62.6 °F 59.0 °F 88% 29.74 in 6.2 mi ESE 3.5 mph - N/A   Mostly Cloudy
9:30 PM 60.8 °F 59.0 °F 94% 29.74 in 6.2 mi Variable 2.3 mph - N/A   Mostly Cloudy
10:00 PM 60.8 °F 59.0 °F 94% 29.74 in 6.2 mi Variable 3.5 mph - N/A   Mostly Cloudy
10:30 PM 60.8 °F 59.0 °F 94% 29.74 in 6.2 mi Variable 2.3 mph - N/A   Mostly Cloudy
11:00 PM 60.8 °F 59.0 °F 94% 29.74 in 6.2 mi South 3.5 mph - N/A   Mostly Cloudy
11:30 PM 60.8 °F 59.0 °F 94% 29.74 in 6.2 mi South 2.3 mph - N/A   Mostly Cloudy